User: anonymous
Location: Muenchen
(48.1800°N, 11.5800°E)
Time: 10:15:43
(UTC+02:00)
Language:

Sich 1 Rocket - Orbit

View from above orbital plane
View from above orbital plane
View from above satellite
View from above satellite

Ground track
Ground track

The orbit data is extracted from the following two-line orbital elements,

1 23659U 95046C   14208.50599096  .00000227  00000-0  28168-4 0  9672
2 23659 082.5294 204.7536 0027453 087.6654 030.2400 14.77782027 18600
Epoch (UTC): 27 July 2014 12:08:37
Eccentricity: 0.0027453
inclination: 82.5294°
perigee height: 617 km
apogee height: 655 km
right ascension of ascending node: 204.7536°
argument of perigee: 87.6654°
revolutions per day: 14.77782027
mean anomaly at epoch: 30.2400°
orbit number at epoch: 1860

The dashed part of the orbit path shows where the satellite is in the earth's shadow,  

DLR